Location: Lombard
(41.8800°N, 88.0080°W)
Time: 23:34:39
(UTC-05:00)

Tiros 1 - Pass Details

Date: 03 February 2023
Orbit: 628 x 662 km, 48.4° (Epoch: 20 March)

Event Time Altitude Azimuth Distance (km) Brightness Sun altitude
Rises 01:04:24 0° 251° (WSW) 2,904 - -61.7°
Reaches altitude 10° 01:06:43 10° 254° (WSW) 2,001 - -61.5°
Maximum altitude 01:11:18 65° 337° (NNW) 694 - -61.1°
Drops below altitude 10° 01:15:55 10° 60° (ENE) 2,023 - -60.6°
Sets 01:18:17 0° 63° (ENE) 2,939 - -60.3°
